[[{"header":{"parameterUnit":"m.s-1","parameterCategory":1,"la1":30.2991,"la2":30.254,"lo1":-89.0895,"lo2":-89.0444,"dy":0.0017,"dx":0.0017,"nx":28,"ny":28,"refTime":"2025-08-23T09:00:00:Z","depth":0,"parameterNumber":2,"parameterNumberName":"U-component_of_WINDS"},"data":[0,0,0,0,0,0,0,0,0,0,0,0,0,0,0,0,0,0,0,0,0,0,0,0,0,0,0,0,0,0,0,0,0,0,0,0,0,0,0,0,0,0,0,0,0,0,0,0,0,0,0,0,0,0,0,0,0,0,2.354,2.3541,0,2.3622,2.3623,2.3624,2.3587,2.3585,2.3583,2.3581,2.3667,2.3671,2.3675,0,0,0,0,0,0,0,0,0,0,0,0,0,2.3354,2.3357,2.354,2.3541,2.3542,2.3622,2.3623,2.3624,2.3588,2.3585,2.3583,2.358,2.3666,2.3671,2.3676,0,0,0,0,0,0,0,0,0,0,0,0,0,2.3435,2.3358,2.354,2.3533,2.3533,2.3622,2.3623,2.3625,2.3588,2.3585,2.3582,2.3579,2.3664,2.367,2.3676,2.3777,0,0,2.3696,2.3698,0,0,0,0,0,0,0,0,2.3431,2.3442,2.3533,2.3534,2.3534,2.3591,2.3589,2.3676,2.3589,2.3567,2.3581,2.3578,2.3644,2.3652,2.3674,2.3781,2.3784,2.3696,2.37,2.3703,2.3704,0,0,0,0,0,0,0,2.3425,2.3438,2.3573,2.3535,2.3535,2.3527,2.3535,2.3605,2.3622,2.3569,2.3566,2.3577,2.3644,2.3668,2.3676,2.3785,2.3696,2.3702,2.3705,2.3708,2.398,2.3984,0,0,0,0,0,0,2.3419,2.3434,2.357,2.3575,2.3474,2.3533,2.3542,2.3576,2.3621,2.3625,2.3579,2.3575,2.3659,2.3669,2.3679,2.38,2.3703,2.3708,2.3712,2.3977,2.3981,2.3985,0,0,0,0,0,0,2.3415,2.3432,2.3567,2.3504,2.352,2.3539,2.3578,2.3579,2.3603,2.3629,2.3632,2.3601,2.3657,2.367,2.3753,2.3803,2.3711,2.3717,2.3973,2.3978,2.3983,2.4044,0,0,0,0,0,0,2.341,2.343,2.3468,2.3505,2.3524,2.3639,2.3581,2.3583,2.3614,2.3609,2.365,2.3654,2.3656,2.3744,2.3759,2.381,2.3722,2.3968,2.3975,2.3981,2.4037,2.405,2.4061,0,0,0,0,0,2.3404,2.3482,2.347,2.3487,2.3571,2.3641,2.3652,2.3652,2.3618,2.3657,2.3674,2.3652,2.3795,2.3752,2.377,2.3823,2.3965,2.3973,2.3981,2.4032,2.4048,2.4061,0,0,0,0,0,0,2.345,2.3486,2.3474,2.3566,2.3601,2.3635,2.3683,2.3669,2.3715,2.3708,2.3707,2.3716,2.3802,2.3821,2.3773,2.3923,2.3875,2.3887,2.3908,2.3923,2.3935,2.3929,2.3727,0,0,0,0,0,2.3471,2.3525,2.3554,2.3632,2.365,2.3664,2.3695,2.3692,2.3728,2.3743,2.3765,2.3802,2.3855,2.389,2.394,2.404,2.4049,2.4085,2.4097,2.4107,2.4117,2.4173,2.419,2.401,2.401,2.401,0,0,2.3515,2.3542,2.3575,2.3642,2.3669,2.3725,2.3677,2.3738,2.378,2.3752,2.3832,2.385,2.3891,2.3983,2.4025,2.4001,2.4169,2.4117,2.4125,2.413,2.4183,2.42,2.4215,2.4016,2.4015,2.4014,0,0,2.3624,2.3649,2.3718,2.3746,2.3787,2.3796,2.3813,2.3849,2.386,2.394,2.3921,2.3972,2.4063,2.4093,2.4121,2.4244,2.4226,2.426,2.4323,2.4377,2.4392,2.4404,2.4449,2.4465,2.427,2.427,2.427,0,2.3674,2.3757,2.3755,2.3819,2.3849,2.3827,2.3898,2.3925,2.3981,2.4003,2.3976,2.4091,2.4117,2.4216,2.4247,2.4269,2.4289,2.4255,2.439,2.4402,2.4414,2.4457,2.4474,2.4274,2.4274,2.4273,2.4273,0,2.3817,2.3875,2.3926,2.398,2.4017,2.4084,2.4093,2.413,2.4125,2.4137,2.422,2.4251,2.4307,2.4331,2.4326,2.4431,2.4415,2.4389,2.434,2.4435,2.4475,2.4492,2.428,2.4278,2.4277,2.4276,0,0,2.3956,2.401,2.4029,2.4054,2.4098,2.4144,2.4211,2.4266,2.4299,2.4338,2.4395,2.4473,2.445,2.4481,2.448,2.4528,2.4625,2.4496,2.4497,2.452,2.4744,2.4763,2.4782,2.4614,2.4617,2.4619,2.4741,0,2.4069,2.4185,2.4186,2.4293,2.4348,2.4328,2.4387,2.4421,2.4435,2.4484,2.4499,2.4555,2.452,2.4539,2.4585,2.4603,2.467,2.4594,2.4668,2.467,2.4658,2.4803,2.4824,2.4937,2.4756,2.4759,2.4761,0,2.4216,2.4261,2.4373,2.4411,2.4434,2.4486,2.4538,2.4585,2.4624,2.4631,2.4667,2.4659,2.4728,2.4678,2.4774,2.4723,2.4753,2.4767,2.4771,2.4778,2.4721,2.4815,2.4972,2.499,2.4785,2.4783,2.4782,0,2.4308,2.4396,2.4475,2.4497,2.4543,2.4581,2.4602,2.4638,2.4672,2.4718,2.474,2.4793,2.4822,2.4864,2.4872,2.4834,2.4969,2.4919,2.4978,2.4978,2.5007,2.5005,2.5172,2.5026,2.5026,2.5025,2.5025,0,2.4435,2.4504,2.4518,2.4566,2.4645,2.4646,2.4724,2.4742,2.4775,2.4828,2.4814,2.4864,2.487,2.4923,2.4929,2.5009,2.5022,2.503,2.5031,2.5032,2.5031,2.5052,2.5044,2.503,2.5029,2.5028,2.5027,0,2.455,2.4562,2.4647,2.4684,2.4695,2.4751,2.4783,2.4831,2.4843,2.4911,2.4927,2.4947,2.5008,2.5019,2.5091,2.5096,2.5191,2.5184,2.5178,2.5177,2.5236,2.5231,2.5423,2.5449,2.5285,2.5286,2.5287,0,2.463,2.4684,2.4727,2.4761,2.4784,2.4839,2.4874,2.4878,2.4915,2.4965,2.5006,2.5066,2.5114,2.5212,2.5234,2.529,2.5284,2.5348,2.5292,2.5292,2.5286,2.5283,2.5289,2.5358,2.536,2.5362,2.5363,0,2.4772,2.4775,2.4825,2.4878,2.4919,2.4961,2.5001,2.503,2.5039,2.5082,2.5144,2.5181,2.5255,2.5315,2.5371,2.5393,2.5381,2.538,2.5397,2.5398,2.5393,2.5398,2.5207,2.5376,2.5374,2.5374,2.5373,2.5372,2.4873,2.492,2.4958,2.5014,2.5045,2.5082,2.5129,2.5148,2.5199,2.526,2.5259,2.5328,2.5368,2.5441,2.5468,2.5522,2.5502,2.5526,2.5533,2.5539,2.5545,2.5384,2.5532,2.5532,2.5532,2.5531,2.5531,0,2.5014,2.5038,2.509,2.5146,2.5191,2.5174,2.5218,2.5257,2.5317,2.5355,2.5403,2.5475,2.5533,2.556,2.5618,2.5657,2.5653,2.5672,2.567,2.5676,2.5559,2.5539,2.5675,2.5675,2.5675,2.5675,2.5675,2.5675,2.5093,2.5172,2.5181,2.5275,2.5299,2.5365,2.5392,2.5427,2.5457,2.5539,2.5587,2.5604,2.5638,2.5699,2.5752,2.5759,2.5781,2.5804,2.5808,2.5698,2.5684,2.567,2.5651,2.5809,2.5809,2.5921,2.5922,2.5922]},{"header":{"parameterUnit":"m.s-1","parameterCategory":1,"la1":30.2991,"la2":30.254,"lo1":-89.0895,"lo2":-89.0444,"dy":0.0017,"dx":0.0017,"nx":28,"ny":28,"refTime":"2025-08-23T09:00:00:Z","depth":0,"parameterNumber":3,"parameterNumberName":"V-component_of_WINDS"},"data":[0,0,0,0,0,0,0,0,0,0,0,0,0,0,0,0,0,0,0,0,0,0,0,0,0,0,0,0,0,0,0,0,0,0,0,0,0,0,0,0,0,0,0,0,0,0,0,0,0,0,0,0,0,0,0,0,0,0,-2.863,-2.8631,0,-2.8717,-2.8718,-2.8719,-2.8698,-2.8696,-2.8694,-2.8693,-2.878,-2.8784,-2.8787,0,0,0,0,0,0,0,0,0,0,0,0,0,-2.8442,-2.8446,-2.863,-2.8631,-2.8632,-2.8717,-2.8718,-2.8719,-2.8698,-2.8696,-2.8694,-2.8692,-2.8779,-2.8783,-2.8788,0,0,0,0,0,0,0,0,0,0,0,0,0,-2.8526,-2.8447,-2.863,-2.8632,-2.8633,-2.8717,-2.8718,-2.872,-2.8699,-2.8696,-2.8693,-2.8691,-2.8777,-2.8783,-2.8788,-2.8875,0,0,-2.8806,-2.8809,0,0,0,0,0,0,0,0,-2.8521,-2.8533,-2.863,-2.8632,-2.8633,-2.8694,-2.8684,-2.8772,-2.8699,-2.8674,-2.8693,-2.869,-2.8753,-2.8761,-2.8783,-2.8879,-2.8883,-2.8807,-2.881,-2.8813,-2.8814,0,0,0,0,0,0,0,-2.8516,-2.8529,-2.8664,-2.8632,-2.8633,-2.8627,-2.8637,-2.87,-2.8726,-2.8676,-2.8674,-2.8685,-2.8753,-2.8777,-2.8785,-2.8884,-2.8807,-2.8812,-2.8815,-2.8818,-2.9055,-2.9058,0,0,0,0,0,0,-2.8509,-2.8524,-2.8662,-2.8667,-2.857,-2.8633,-2.8643,-2.8677,-2.8726,-2.8731,-2.8687,-2.8684,-2.8768,-2.8778,-2.8788,-2.8892,-2.8813,-2.8818,-2.8822,-2.9052,-2.9056,-2.9059,0,0,0,0,0,0,-2.8505,-2.8521,-2.8658,-2.8595,-2.8612,-2.8639,-2.8677,-2.868,-2.8704,-2.8734,-2.8739,-2.8707,-2.8767,-2.8779,-2.8853,-2.8894,-2.8821,-2.8826,-2.9049,-2.9053,-2.9057,-2.9101,0,0,0,0,0,0,-2.85,-2.852,-2.8554,-2.8596,-2.8616,-2.8723,-2.868,-2.8684,-2.8714,-2.8711,-2.8754,-2.8759,-2.8766,-2.8845,-2.8859,-2.8901,-2.8831,-2.9045,-2.9051,-2.9056,-2.9096,-2.9106,-2.9114,0,0,0,0,0,-2.8493,-2.8562,-2.8556,-2.8572,-2.8659,-2.8726,-2.8737,-2.8744,-2.8718,-2.8751,-2.8771,-2.8757,-2.8888,-2.8853,-2.8869,-2.8913,-2.9043,-2.9049,-2.9055,-2.9091,-2.9104,-2.9114,0,0,0,0,0,0,-2.8523,-2.8568,-2.8561,-2.8646,-2.8683,-2.8722,-2.8765,-2.8757,-2.8801,-2.8796,-2.8803,-2.8813,-2.8888,-2.8908,-2.8868,-2.8999,-2.8961,-2.8971,-2.8983,-2.8995,-2.9004,-2.8998,-2.8836,0,0,0,0,0,-2.854,-2.8592,-2.8628,-2.8699,-2.8718,-2.8738,-2.8768,-2.8771,-2.8808,-2.8823,-2.8848,-2.8884,-2.8933,-2.8965,-2.9012,-2.9098,-2.9107,-2.9137,-2.9146,-2.9154,-2.9162,-2.9208,-2.9221,-2.9079,-2.9079,-2.9079,0,0,-2.8575,-2.8606,-2.8638,-2.8706,-2.8734,-2.8787,-2.8751,-2.8808,-2.8847,-2.8831,-2.8903,-2.8923,-2.8963,-2.9044,-2.908,-2.9062,-2.9203,-2.9162,-2.9167,-2.9172,-2.9216,-2.9229,-2.9241,-2.9084,-2.9083,-2.9082,0,0,-2.8665,-2.8694,-2.8756,-2.8786,-2.8829,-2.8842,-2.8858,-2.8899,-2.8911,-2.8983,-2.8972,-2.9018,-2.9102,-2.9132,-2.9158,-2.9259,-2.9247,-2.9274,-2.9323,-2.9368,-2.9379,-2.9389,-2.9424,-2.9437,-2.9282,-2.9282,-2.9282,0,-2.8702,-2.8782,-2.8789,-2.8848,-2.8877,-2.8866,-2.8929,-2.8957,-2.9013,-2.9034,-2.9013,-2.9119,-2.9145,-2.9232,-2.9257,-2.9279,-2.9295,-2.9268,-2.9377,-2.9387,-2.9396,-2.943,-2.9443,-2.9285,-2.9284,-2.9284,-2.9284,0,-2.8825,-2.8881,-2.8926,-2.8981,-2.9016,-2.9076,-2.9092,-2.9127,-2.9126,-2.9141,-2.9214,-2.9246,-2.9299,-2.932,-2.932,-2.9406,-2.9394,-2.9375,-2.9337,-2.9412,-2.9444,-2.9457,-2.9289,-2.9288,-2.9287,-2.9286,0,0,-2.8937,-2.8996,-2.9012,-2.9037,-2.9084,-2.9126,-2.9186,-2.9238,-2.9267,-2.9306,-2.9355,-2.9427,-2.941,-2.9439,-2.9442,-2.9482,-2.9559,-2.9458,-2.9459,-2.9475,-2.9656,-2.9669,-2.9684,-2.9552,-2.9555,-2.9557,-2.9652,0,-2.9031,-2.9136,-2.9144,-2.9239,-2.9289,-2.9279,-2.9331,-2.9365,-2.938,-2.9425,-2.9441,-2.9492,-2.9466,-2.9484,-2.9522,-2.9541,-2.9595,-2.9535,-2.9597,-2.9599,-2.9586,-2.9701,-2.9715,-2.9804,-2.9664,-2.9666,-2.9668,0,-2.9154,-2.9198,-2.9297,-2.9337,-2.9358,-2.9405,-2.9453,-2.9496,-2.9534,-2.9542,-2.9575,-2.9573,-2.9633,-2.9593,-2.9675,-2.9634,-2.966,-2.9673,-2.9677,-2.9682,-2.9638,-2.9708,-2.9832,-2.9845,-2.9688,-2.9686,-2.9685,0,-2.9225,-2.9308,-2.9378,-2.94,-2.9448,-2.9481,-2.9502,-2.9538,-2.9568,-2.961,-2.963,-2.9678,-2.9704,-2.9741,-2.9751,-2.9722,-2.9833,-2.9795,-2.9841,-2.9841,-2.9864,-2.9862,-2.9993,-2.9882,-2.9882,-2.9881,-2.9881,0,-2.9328,-2.9389,-2.9411,-2.9454,-2.9522,-2.953,-2.9597,-2.9616,-2.9648,-2.9694,-2.9688,-2.9731,-2.9742,-2.9787,-2.9796,-2.9862,-2.9874,-2.9881,-2.9883,-2.9882,-2.9881,-2.9898,-2.9892,-2.9885,-2.9884,-2.9884,-2.9883,0,-2.9418,-2.9435,-2.9511,-2.955,-2.9562,-2.961,-2.9643,-2.9684,-2.9699,-2.9757,-2.9771,-2.9794,-2.9847,-2.9861,-2.9923,-2.9929,-3.0007,-3.0002,-2.9994,-2.9994,-3.0039,-3.0034,-3.0185,-3.0205,-3.0081,-3.0082,-3.0083,0,-2.9483,-2.953,-2.9575,-2.9605,-2.9628,-2.9678,-2.9709,-2.9719,-2.9752,-2.9799,-2.9834,-2.9886,-2.9928,-3.0012,-3.0034,-3.0081,-3.0078,-3.0127,-3.0085,-3.0082,-3.0078,-3.0075,-3.0079,-3.0135,-3.0136,-3.0138,-3.0138,0,-2.9596,-2.9602,-2.9648,-2.9697,-2.9735,-2.9773,-2.9811,-2.9836,-2.9851,-2.9888,-2.9942,-2.9974,-3.0039,-3.009,-3.0138,-3.0159,-3.0151,-3.0152,-3.0165,-3.0164,-3.0157,-3.016,-3.0015,-3.0148,-3.0147,-3.0146,-3.0146,-3.0145,-2.9675,-2.9716,-2.9754,-2.9805,-2.9834,-2.9869,-2.9909,-2.9929,-2.9974,-3.0028,-3.0031,-3.0089,-3.0125,-3.0189,-3.0213,-3.0258,-3.0243,-3.0262,-3.0267,-3.0271,-3.0275,-3.015,-3.0267,-3.0266,-3.0266,-3.0266,-3.0266,0,-2.9787,-2.9811,-2.9858,-2.991,-2.995,-2.994,-2.9981,-3.0014,-3.0066,-3.0101,-3.0142,-3.0204,-3.0254,-3.0279,-3.0328,-3.0359,-3.0357,-3.0372,-3.0369,-3.0374,-3.0286,-3.0269,-3.0373,-3.0373,-3.0373,-3.0373,-3.0373,-3.0373,-2.985,-2.9919,-2.9929,-3.0011,-3.0035,-3.0092,-3.0116,-3.0148,-3.0175,-3.0245,-3.0286,-3.0303,-3.0334,-3.0385,-3.0429,-3.0435,-3.0453,-3.047,-3.0474,-3.0391,-3.038,-3.037,-3.0354,-3.0474,-3.0474,-3.0559,-3.0559,-3.056]}]]